Location: Boiro
(42.6475°N, 8.8834°W)
Time: 09:10:15
(UTC+01:00)

Vanguard 2 - Pass Details

Date: 09 December 2021
Orbit: 553 x 2936 km, 32.9° (Epoch: 19 January)

Event Time Altitude Azimuth Distance (km) Brightness Sun altitude
Rises 12:11:47 0° 211° (SSW) 2,824 11.0 22.2°
Reaches altitude 10° 12:16:10 10° 167° (SSE) 1,817 11.6 22.4°
Maximum altitude 12:16:45 10° 158° (SSE) 1,800 11.6 22.5°
Drops below altitude 10° 12:17:21 10° 149° (SSE) 1,822 11.3 22.5°
Sets 12:21:47 0° 105° (ESE) 2,869 10.9 22.7°
